RYR3MK LIME-LGZA

Flight info

Callsign RYR3MK
Flight time 1h 48m
Altitude 35000
Route LOGDI DCT EKDIR DCT LOMED DCT PES DCT RUTOM UM601 LASKO
Aircraft B738/M-SDE2E3FGHIRWXY/LB1

Departure

Time 2026-04-26 14:09
Airport Il Caravaggio International Airport (LIME)

Arrival

Time 2026-04-26 15:58
Airport Zakynthos International Airport Dionysios Solomos (LGZA)
Time Latitude Longitude Altitude Speed Heading
2026-04-26 13:52 45.66707 9.69676 786 ft 0 kts 195°
2026-04-26 13:59 45.66710 9.69677 786 ft 2 kts 194°
2026-04-26 13:59 45.66728 9.69684 786 ft 3 kts 191°
2026-04-26 13:59 45.66748 9.69689 786 ft 3 kts 186°
2026-04-26 14:00 45.66802 9.69676 786 ft 2 kts 114°
2026-04-26 14:00 45.66804 9.69670 786 ft 1 kts 105°
2026-04-26 14:02 45.66803 9.69674 786 ft 2 kts 105°
2026-04-26 14:02 45.66794 9.69724 786 ft 9 kts 105°
2026-04-26 14:02 45.66772 9.69839 786 ft 14 kts 105°
2026-04-26 14:02 45.66746 9.69980 786 ft 15 kts 105°
2026-04-26 14:03 45.66718 9.70122 786 ft 14 kts 105°
2026-04-26 14:03 45.66693 9.70259 786 ft 14 kts 104°
2026-04-26 14:03 45.66668 9.70396 786 ft 14 kts 104°
2026-04-26 14:03 45.66644 9.70529 786 ft 13 kts 104°
2026-04-26 14:04 45.66620 9.70662 786 ft 15 kts 105°
2026-04-26 14:04 45.66589 9.70821 786 ft 19 kts 105°
2026-04-26 14:04 45.66556 9.71007 786 ft 19 kts 104°
2026-04-26 14:04 45.66512 9.71185 786 ft 19 kts 111°
2026-04-26 14:05 45.66476 9.71358 786 ft 18 kts 104°
2026-04-26 14:05 45.66444 9.71529 786 ft 17 kts 104°
2026-04-26 14:05 45.66454 9.71696 786 ft 17 kts 75°
2026-04-26 14:05 45.66469 9.71806 786 ft 16 kts 86°
2026-04-26 14:07 45.66429 9.72104 786 ft 1 kts 105°
2026-04-26 14:07 45.66421 9.72144 786 ft 8 kts 105°
2026-04-26 14:07 45.66399 9.72257 786 ft 16 kts 105°
2026-04-26 14:07 45.66371 9.72411 786 ft 13 kts 103°
2026-04-26 14:08 45.66418 9.72464 786 ft 10 kts 341°
2026-04-26 14:08 45.66465 9.72412 786 ft 3 kts 291°
2026-04-26 14:08 45.66467 9.72402 786 ft 0 kts 284°
2026-04-26 14:08 45.66502 9.72202 786 ft 59 kts 285°
2026-04-26 14:09 45.66678 9.71257 786 ft 136 kts 284°
2026-04-26 14:09 45.66966 9.69676 1025 ft 179 kts 282°
2026-04-26 14:09 45.67237 9.67885 1862 ft 191 kts 268°
2026-04-26 14:09 45.66862 9.66033 2606 ft 202 kts 231°
2026-04-26 14:10 45.65879 9.64660 3514 ft 191 kts 220°
2026-04-26 14:10 45.64921 9.63436 4558 ft 181 kts 221°
2026-04-26 14:10 45.64001 9.62185 5231 ft 189 kts 221°
2026-04-26 14:10 45.63032 9.60818 5922 ft 196 kts 224°
2026-04-26 14:11 45.61056 9.58005 7108 ft 215 kts 222°
2026-04-26 14:11 45.60116 9.56677 7262 ft 233 kts 223°
2026-04-26 14:12 45.58930 9.54994 7603 ft 245 kts 224°
2026-04-26 14:12 45.57708 9.53254 8126 ft 250 kts 224°
2026-04-26 14:12 45.56317 9.51796 8717 ft 251 kts 199°
2026-04-26 14:12 45.54602 9.51592 9370 ft 251 kts 168°
2026-04-26 14:13 45.51286 9.53358 10804 ft 256 kts 156°
2026-04-26 14:13 45.49642 9.54394 11485 ft 260 kts 156°
2026-04-26 14:13 45.47976 9.55439 12159 ft 264 kts 157°
2026-04-26 14:14 45.46280 9.56488 12825 ft 267 kts 157°
2026-04-26 14:14 45.44582 9.57527 13487 ft 271 kts 158°
2026-04-26 14:14 45.42834 9.58588 14134 ft 275 kts 158°
2026-04-26 14:14 45.41059 9.59658 14731 ft 279 kts 158°
2026-04-26 14:15 45.39265 9.60737 15343 ft 281 kts 158°
2026-04-26 14:15 45.37452 9.61825 15953 ft 284 kts 158°
2026-04-26 14:15 45.35648 9.63057 16428 ft 294 kts 150°
2026-04-26 14:15 45.33851 9.64662 16587 ft 316 kts 147°
2026-04-26 14:16 45.31968 9.66463 16751 ft 336 kts 146°
2026-04-26 14:16 45.29977 9.68378 16899 ft 356 kts 146°
2026-04-26 14:16 45.27860 9.70393 17028 ft 375 kts 147°
2026-04-26 14:16 45.25634 9.72487 17155 ft 393 kts 147°
2026-04-26 14:17 45.23299 9.74663 17356 ft 408 kts 147°
2026-04-26 14:17 45.20902 9.76882 17816 ft 414 kts 147°
2026-04-26 14:17 45.18477 9.79117 18403 ft 417 kts 147°
2026-04-26 14:17 45.16032 9.81366 18919 ft 420 kts 147°
2026-04-26 14:18 45.13576 9.83621 19460 ft 422 kts 147°
2026-04-26 14:18 45.11107 9.85886 19998 ft 424 kts 147°
2026-04-26 14:18 45.08614 9.88171 20503 ft 427 kts 148°
2026-04-26 14:18 45.06140 9.90437 20988 ft 430 kts 148°
2026-04-26 14:19 45.03623 9.92740 21469 ft 433 kts 148°
2026-04-26 14:19 45.01082 9.95061 21953 ft 436 kts 148°
2026-04-26 14:19 44.98517 9.97356 22400 ft 438 kts 149°
2026-04-26 14:19 44.95882 9.99556 22847 ft 441 kts 150°
2026-04-26 14:20 44.93204 10.01725 23281 ft 445 kts 151°
2026-04-26 14:20 44.90507 10.03899 23709 ft 448 kts 151°
2026-04-26 14:20 44.87794 10.06099 24080 ft 450 kts 151°
2026-04-26 14:20 44.85075 10.08319 24464 ft 452 kts 150°
2026-04-26 14:21 44.82343 10.10558 24829 ft 455 kts 150°
2026-04-26 14:21 44.79599 10.12812 25182 ft 457 kts 150°
2026-04-26 14:21 44.76848 10.15071 25524 ft 460 kts 150°
2026-04-26 14:21 44.74076 10.17343 25867 ft 462 kts 151°
2026-04-26 14:22 44.71287 10.19624 26171 ft 465 kts 150°
2026-04-26 14:22 44.68481 10.21918 26480 ft 468 kts 150°
2026-04-26 14:22 44.65691 10.24199 26816 ft 470 kts 150°
2026-04-26 14:22 44.62859 10.26510 27111 ft 473 kts 150°
2026-04-26 14:23 44.59995 10.28845 27394 ft 476 kts 150°
2026-04-26 14:23 44.57120 10.31186 27709 ft 478 kts 151°
2026-04-26 14:23 44.54236 10.33534 28037 ft 480 kts 150°
2026-04-26 14:23 44.51343 10.35889 28335 ft 482 kts 151°
2026-04-26 14:24 44.48433 10.38259 28629 ft 484 kts 151°
2026-04-26 14:24 44.45518 10.40633 28982 ft 484 kts 151°
2026-04-26 14:24 44.42614 10.42999 29458 ft 482 kts 151°
2026-04-26 14:24 44.39719 10.45359 29926 ft 480 kts 151°
2026-04-26 14:25 44.36875 10.47678 30280 ft 480 kts 150°
2026-04-26 14:25 44.33989 10.50031 30608 ft 480 kts 151°
2026-04-26 14:25 44.31112 10.52378 30959 ft 478 kts 151°
2026-04-26 14:25 44.28241 10.54722 31339 ft 477 kts 151°
2026-04-26 14:26 44.25387 10.57056 31706 ft 475 kts 151°
2026-04-26 14:26 44.22537 10.59391 32060 ft 475 kts 151°
2026-04-26 14:26 44.19696 10.61725 32439 ft 473 kts 151°
2026-04-26 14:26 44.16867 10.64053 32783 ft 472 kts 151°
2026-04-26 14:27 44.14043 10.66378 33083 ft 472 kts 151°
2026-04-26 14:27 44.11218 10.68706 33390 ft 471 kts 151°
2026-04-26 14:27 44.08502 10.71245 33699 ft 472 kts 138°
2026-04-26 14:27 44.06236 10.74540 34062 ft 471 kts 132°
2026-04-26 14:28 44.04210 10.78104 34330 ft 471 kts 124°
2026-04-26 14:28 44.02426 10.81929 34554 ft 471 kts 122°
2026-04-26 14:28 44.01284 10.84495 34700 ft 472 kts 122°
2026-04-26 14:28 43.99584 10.88394 34957 ft 471 kts 122°
2026-04-26 14:29 43.98715 10.90399 35097 ft 471 kts 122°
2026-04-26 14:29 43.96782 10.94837 35391 ft 470 kts 122°
2026-04-26 14:29 43.95082 10.98702 35617 ft 470 kts 122°
2026-04-26 14:30 43.93369 11.02561 35860 ft 469 kts 122°
2026-04-26 14:30 43.91647 11.06413 36068 ft 469 kts 123°
2026-04-26 14:30 43.89923 11.10249 36311 ft 469 kts 123°
2026-04-26 14:30 43.88196 11.14080 36560 ft 468 kts 123°
2026-04-26 14:31 43.86472 11.17896 36802 ft 467 kts 123°
2026-04-26 14:31 43.84749 11.21708 37001 ft 467 kts 123°
2026-04-26 14:31 43.83024 11.25516 37111 ft 468 kts 123°
2026-04-26 14:32 43.79545 11.33187 37119 ft 471 kts 123°
2026-04-26 14:32 43.76073 11.40827 37114 ft 466 kts 123°
2026-04-26 14:33 43.72625 11.48395 37116 ft 463 kts 123°
2026-04-26 14:33 43.69195 11.55903 37120 ft 461 kts 123°
2026-04-26 14:34 43.65766 11.63388 37112 ft 460 kts 123°
2026-04-26 14:34 43.62338 11.70852 37111 ft 461 kts 123°
2026-04-26 14:35 43.58893 11.78333 37116 ft 462 kts 124°
2026-04-26 14:35 43.55437 11.85820 37111 ft 464 kts 124°
2026-04-26 14:36 43.51961 11.93331 37113 ft 465 kts 124°
2026-04-26 14:36 43.48471 12.00853 37112 ft 467 kts 124°
2026-04-26 14:37 43.44963 12.08396 37102 ft 468 kts 124°
2026-04-26 14:37 43.41462 12.15904 37108 ft 469 kts 124°
2026-04-26 14:38 43.37926 12.23466 37112 ft 470 kts 124°
2026-04-26 14:38 43.34382 12.31026 37109 ft 470 kts 124°
2026-04-26 14:39 43.30830 12.38584 37103 ft 470 kts 124°
2026-04-26 14:39 43.27280 12.46120 37102 ft 470 kts 124°
2026-04-26 14:40 43.23727 12.53642 37101 ft 469 kts 124°
2026-04-26 14:40 43.20180 12.61132 37096 ft 468 kts 124°
2026-04-26 14:41 43.16630 12.68607 37101 ft 467 kts 124°
2026-04-26 14:41 43.13081 12.76064 37105 ft 466 kts 124°
2026-04-26 14:42 43.09537 12.83491 37110 ft 466 kts 124°
2026-04-26 14:42 43.06011 12.90862 37110 ft 466 kts 124°
2026-04-26 14:43 43.02461 12.98264 37129 ft 466 kts 124°
2026-04-26 14:43 42.98898 13.05675 37111 ft 467 kts 124°
2026-04-26 14:44 42.95329 13.13080 37116 ft 467 kts 124°
2026-04-26 14:44 42.91755 13.20475 37126 ft 467 kts 124°
2026-04-26 14:45 42.88175 13.27867 37108 ft 467 kts 124°
2026-04-26 14:45 42.84590 13.35250 37110 ft 466 kts 124°
2026-04-26 14:46 42.81004 13.42616 37109 ft 467 kts 124°
2026-04-26 14:46 42.77407 13.49987 37124 ft 467 kts 124°
2026-04-26 14:47 42.73830 13.57300 37124 ft 468 kts 124°
2026-04-26 14:47 42.70220 13.64660 37118 ft 468 kts 124°
2026-04-26 14:48 42.66602 13.72020 37113 ft 468 kts 124°
2026-04-26 14:48 42.62978 13.79374 37119 ft 468 kts 124°
2026-04-26 14:49 42.59351 13.86716 37115 ft 468 kts 124°
2026-04-26 14:49 42.55714 13.94059 37113 ft 469 kts 124°
2026-04-26 14:50 42.52072 14.01396 37127 ft 469 kts 124°
2026-04-26 14:50 42.48423 14.08732 37103 ft 469 kts 124°
2026-04-26 14:51 42.44792 14.16012 37097 ft 469 kts 125°
2026-04-26 14:51 42.40571 14.22706 37115 ft 467 kts 136°
2026-04-26 14:52 42.35899 14.28836 37105 ft 468 kts 137°
2026-04-26 14:52 42.31213 14.34964 37095 ft 468 kts 137°
2026-04-26 14:53 42.26549 14.41122 37108 ft 468 kts 137°
2026-04-26 14:53 42.21903 14.47282 37116 ft 469 kts 136°
2026-04-26 14:54 42.17252 14.53445 37117 ft 469 kts 136°
2026-04-26 14:54 42.12594 14.59601 37111 ft 469 kts 137°
2026-04-26 14:55 42.07930 14.65751 37115 ft 469 kts 137°
2026-04-26 14:55 42.03263 14.71891 37115 ft 469 kts 137°
2026-04-26 14:56 41.98592 14.78021 37118 ft 469 kts 137°
2026-04-26 14:56 41.93947 14.84105 37117 ft 469 kts 137°
2026-04-26 14:57 41.89272 14.90215 37119 ft 469 kts 137°
2026-04-26 14:57 41.84592 14.96318 37101 ft 469 kts 137°
2026-04-26 14:58 41.79916 15.02403 37114 ft 469 kts 137°
2026-04-26 14:58 41.75230 15.08488 37109 ft 469 kts 137°
2026-04-26 14:59 41.70537 15.14569 37111 ft 469 kts 137°
2026-04-26 14:59 41.65846 15.20634 37108 ft 469 kts 137°
2026-04-26 15:00 41.61151 15.26691 37094 ft 469 kts 137°
2026-04-26 15:00 41.56456 15.32736 37102 ft 469 kts 137°
2026-04-26 15:01 41.51759 15.38771 37099 ft 468 kts 137°
2026-04-26 15:01 41.47058 15.44798 37079 ft 468 kts 137°
2026-04-26 15:02 41.42358 15.50810 37080 ft 468 kts 137°
2026-04-26 15:02 41.37683 15.56778 37081 ft 468 kts 137°
2026-04-26 15:03 41.32971 15.62780 37072 ft 468 kts 137°
2026-04-26 15:03 41.28265 15.68763 37077 ft 468 kts 137°
2026-04-26 15:04 41.23553 15.74740 37086 ft 468 kts 137°
2026-04-26 15:04 41.18841 15.80706 37096 ft 468 kts 137°
2026-04-26 15:05 41.14125 15.86664 37097 ft 468 kts 137°
2026-04-26 15:05 41.09409 15.92609 37102 ft 468 kts 137°
2026-04-26 15:06 41.04688 15.98548 37092 ft 468 kts 137°
2026-04-26 15:06 41.00001 16.04432 37107 ft 468 kts 137°
2026-04-26 15:07 40.92916 16.13304 37123 ft 468 kts 137°
2026-04-26 15:07 40.88185 16.19212 37140 ft 467 kts 137°
2026-04-26 15:08 40.83456 16.25107 37151 ft 467 kts 137°
2026-04-26 15:08 40.78730 16.30985 37148 ft 467 kts 137°
2026-04-26 15:09 40.73994 16.36863 37090 ft 467 kts 137°
2026-04-26 15:09 40.69256 16.42732 37100 ft 467 kts 137°
2026-04-26 15:10 40.65315 16.47604 37139 ft 467 kts 137°
2026-04-26 15:10 40.59770 16.54447 37175 ft 467 kts 137°
2026-04-26 15:11 40.55026 16.60286 37200 ft 467 kts 138°
2026-04-26 15:11 40.50316 16.66074 37221 ft 467 kts 138°
2026-04-26 15:12 40.45570 16.71892 37236 ft 466 kts 138°
2026-04-26 15:12 40.40824 16.77700 37224 ft 467 kts 138°
2026-04-26 15:13 40.36073 16.83502 37206 ft 467 kts 138°
2026-04-26 15:13 40.31319 16.89297 37083 ft 467 kts 138°
2026-04-26 15:14 40.26562 16.95082 37090 ft 467 kts 138°
2026-04-26 15:14 40.22603 16.99888 37093 ft 467 kts 138°
2026-04-26 15:15 40.17838 17.05663 37084 ft 467 kts 139°
2026-04-26 15:15 40.13062 17.11439 37091 ft 467 kts 139°
2026-04-26 15:16 40.08284 17.17205 37095 ft 468 kts 139°
2026-04-26 15:16 40.03502 17.22966 37091 ft 468 kts 139°
2026-04-26 15:17 39.99518 17.27756 37095 ft 468 kts 139°
2026-04-26 15:17 39.93916 17.34477 37092 ft 469 kts 139°
2026-04-26 15:18 39.89118 17.40223 37079 ft 469 kts 139°
2026-04-26 15:18 39.84314 17.45963 37093 ft 469 kts 139°
2026-04-26 15:19 39.79537 17.51660 37096 ft 469 kts 139°
2026-04-26 15:19 39.74723 17.57390 37096 ft 469 kts 139°
2026-04-26 15:20 39.69907 17.63111 37090 ft 469 kts 139°
2026-04-26 15:20 39.65092 17.68819 37090 ft 469 kts 139°
2026-04-26 15:21 39.60264 17.74532 37092 ft 469 kts 139°
2026-04-26 15:21 39.55446 17.80222 37095 ft 469 kts 140°
2026-04-26 15:22 39.50623 17.85905 37086 ft 468 kts 140°
2026-04-26 15:22 39.45799 17.91580 37092 ft 468 kts 140°
2026-04-26 15:23 39.41011 17.97200 37093 ft 468 kts 140°
2026-04-26 15:23 39.36188 18.02851 37093 ft 468 kts 140°
2026-04-26 15:24 39.31364 18.08492 37092 ft 468 kts 140°
2026-04-26 15:24 39.26540 18.14123 37093 ft 468 kts 140°
2026-04-26 15:25 39.22491 18.18840 37093 ft 468 kts 140°
2026-04-26 15:25 39.16876 18.25370 37095 ft 468 kts 140°
2026-04-26 15:26 39.12041 18.30980 37095 ft 468 kts 140°
2026-04-26 15:26 39.07201 18.36585 37098 ft 468 kts 140°
2026-04-26 15:27 39.02355 18.42186 37095 ft 468 kts 140°
2026-04-26 15:27 38.97510 18.47776 37086 ft 468 kts 140°
2026-04-26 15:28 38.92663 18.53358 37098 ft 468 kts 140°
2026-04-26 15:28 38.87845 18.58895 37098 ft 468 kts 140°
2026-04-26 15:29 38.82992 18.64463 37095 ft 468 kts 140°
2026-04-26 15:30 38.73278 18.75575 37098 ft 468 kts 140°
2026-04-26 15:30 38.68417 18.81119 37095 ft 468 kts 140°
2026-04-26 15:31 38.61121 18.89425 37097 ft 468 kts 140°
2026-04-26 15:32 38.54675 18.96821 37089 ft 469 kts 135°
2026-04-26 15:32 38.51978 19.01223 37023 ft 473 kts 123°
2026-04-26 15:32 38.50411 19.04958 36479 ft 479 kts 114°
2026-04-26 15:33 38.49289 19.08948 35942 ft 477 kts 109°
2026-04-26 15:33 38.48266 19.12985 35296 ft 478 kts 109°
2026-04-26 15:33 38.47272 19.16972 34674 ft 478 kts 109°
2026-04-26 15:33 38.46239 19.21066 34016 ft 478 kts 110°
2026-04-26 15:34 38.45203 19.25103 33264 ft 479 kts 110°
2026-04-26 15:34 38.44151 19.29133 32538 ft 479 kts 110°
2026-04-26 15:34 38.43090 19.33163 31824 ft 480 kts 110°
2026-04-26 15:34 38.42036 19.37143 31113 ft 480 kts 110°
2026-04-26 15:35 38.40965 19.41177 30379 ft 481 kts 110°
2026-04-26 15:35 38.39893 19.45211 29703 ft 479 kts 110°
2026-04-26 15:35 38.38830 19.49209 29121 ft 473 kts 109°
2026-04-26 15:35 38.37766 19.53205 28588 ft 468 kts 109°
2026-04-26 15:36 38.36740 19.57055 28034 ft 463 kts 109°
2026-04-26 15:36 38.35708 19.60923 27505 ft 458 kts 109°
2026-04-26 15:36 38.34685 19.64749 26960 ft 454 kts 109°
2026-04-26 15:36 38.33671 19.68541 26440 ft 450 kts 109°
2026-04-26 15:37 38.32663 19.72300 25920 ft 447 kts 109°
2026-04-26 15:37 38.31661 19.76028 25406 ft 443 kts 109°
2026-04-26 15:37 38.30662 19.79729 24896 ft 440 kts 109°
2026-04-26 15:37 38.29668 19.83403 24380 ft 438 kts 108°
2026-04-26 15:38 38.28678 19.87061 23847 ft 436 kts 108°
2026-04-26 15:38 38.27692 19.90702 23267 ft 434 kts 108°
2026-04-26 15:38 38.26709 19.94324 22708 ft 431 kts 108°
2026-04-26 15:38 38.25708 19.97902 22163 ft 428 kts 113°
2026-04-26 15:39 38.24070 20.01013 21649 ft 423 kts 138°
2026-04-26 15:39 38.21628 20.02963 21384 ft 411 kts 162°
2026-04-26 15:39 38.18852 20.03483 21107 ft 401 kts 186°
2026-04-26 15:39 38.17024 20.03019 20775 ft 395 kts 203°
2026-04-26 15:40 38.14136 20.00419 20172 ft 383 kts 229°
2026-04-26 15:40 38.12161 19.98153 19691 ft 384 kts 215°
2026-04-26 15:40 38.09670 19.96950 19276 ft 387 kts 188°
2026-04-26 15:40 38.06990 19.97182 18853 ft 389 kts 167°
2026-04-26 15:41 38.04384 19.98135 18383 ft 390 kts 165°
2026-04-26 15:41 38.01759 19.99064 17842 ft 394 kts 166°
2026-04-26 15:41 37.99106 19.99997 17336 ft 398 kts 164°
2026-04-26 15:41 37.96464 20.01023 16893 ft 395 kts 162°
2026-04-26 15:42 37.93890 20.02208 16393 ft 392 kts 158°
2026-04-26 15:42 37.91432 20.03668 15915 ft 389 kts 152°
2026-04-26 15:42 37.89134 20.05370 15448 ft 387 kts 147°
2026-04-26 15:42 37.86929 20.07293 14975 ft 384 kts 143°
2026-04-26 15:43 37.84830 20.09374 14505 ft 382 kts 140°
2026-04-26 15:43 37.82845 20.11585 14037 ft 380 kts 136°
2026-04-26 15:43 37.79225 20.16416 13004 ft 376 kts 128°
2026-04-26 15:44 37.77625 20.19002 12532 ft 373 kts 125°
2026-04-26 15:44 37.74821 20.24453 11597 ft 367 kts 118°
2026-04-26 15:44 37.73842 20.27398 11103 ft 362 kts 96°
2026-04-26 15:45 37.74083 20.33509 10689 ft 340 kts 83°
2026-04-26 15:45 37.74272 20.36445 10529 ft 330 kts 84°
2026-04-26 15:46 37.74452 20.42090 10248 ft 313 kts 86°
2026-04-26 15:46 37.74487 20.44805 10117 ft 305 kts 87°
2026-04-26 15:46 37.74507 20.47440 10055 ft 294 kts 86°
2026-04-26 15:46 37.74516 20.49137 9866 ft 292 kts 87°
2026-04-26 15:47 37.74532 20.52617 9297 ft 297 kts 87°
2026-04-26 15:47 37.74546 20.57823 8671 ft 295 kts 88°
2026-04-26 15:47 37.74470 20.60365 8363 ft 294 kts 101°
2026-04-26 15:48 37.73526 20.62631 8036 ft 296 kts 135°
2026-04-26 15:48 37.71734 20.63870 7759 ft 293 kts 170°
2026-04-26 15:48 37.69748 20.64021 7507 ft 289 kts 178°
2026-04-26 15:48 37.67768 20.64444 7197 ft 290 kts 163°
2026-04-26 15:49 37.65911 20.65421 6921 ft 289 kts 152°
2026-04-26 15:49 37.64191 20.66719 6644 ft 288 kts 146°
2026-04-26 15:49 37.62575 20.68198 6352 ft 286 kts 142°
2026-04-26 15:49 37.61056 20.69815 6056 ft 286 kts 137°
2026-04-26 15:50 37.60096 20.70993 5864 ft 285 kts 133°
2026-04-26 15:50 37.58426 20.73485 5688 ft 273 kts 126°
2026-04-26 15:50 37.57407 20.75421 5573 ft 258 kts 120°
2026-04-26 15:50 37.56569 20.77341 5480 ft 244 kts 115°
2026-04-26 15:51 37.55887 20.79239 5347 ft 232 kts 110°
2026-04-26 15:51 37.55369 20.81090 5163 ft 219 kts 106°
2026-04-26 15:51 37.54988 20.82934 4793 ft 216 kts 101°
2026-04-26 15:51 37.54726 20.84779 4438 ft 213 kts 96°
2026-04-26 15:52 37.54573 20.86625 4176 ft 207 kts 92°
2026-04-26 15:52 37.54524 20.88439 4034 ft 207 kts 87°
2026-04-26 15:52 37.54573 20.90219 3955 ft 199 kts 83°
2026-04-26 15:52 37.54655 20.91352 3848 ft 195 kts 81°
2026-04-26 15:53 37.55073 20.93526 3557 ft 188 kts 51°
2026-04-26 15:53 37.56046 20.94498 3401 ft 174 kts 16°
2026-04-26 15:53 37.57204 20.94617 3234 ft 165 kts 347°
2026-04-26 15:53 37.58318 20.94271 3080 ft 165 kts 342°
2026-04-26 15:54 37.59445 20.93872 2908 ft 172 kts 342°
2026-04-26 15:54 37.60612 20.93463 2712 ft 174 kts 342°
2026-04-26 15:54 37.61754 20.93068 2553 ft 168 kts 342°
2026-04-26 15:54 37.62861 20.92684 2340 ft 164 kts 342°
2026-04-26 15:55 37.63927 20.92316 2127 ft 153 kts 340°
2026-04-26 15:55 37.64930 20.91968 1966 ft 143 kts 341°
2026-04-26 15:55 37.65896 20.91632 1753 ft 144 kts 341°
2026-04-26 15:55 37.66863 20.91297 1553 ft 144 kts 341°
2026-04-26 15:56 37.67832 20.90961 1393 ft 143 kts 342°
2026-04-26 15:56 37.68801 20.90623 1217 ft 147 kts 343°
2026-04-26 15:56 37.69804 20.90286 1011 ft 151 kts 342°
2026-04-26 15:56 37.70822 20.89936 812 ft 152 kts 342°
2026-04-26 15:57 37.71834 20.89582 613 ft 154 kts 343°
2026-04-26 15:57 37.72869 20.89227 413 ft 155 kts 343°
2026-04-26 15:57 37.73907 20.88866 149 ft 153 kts 342°
2026-04-26 15:57 37.74589 20.88612 29 ft 149 kts 342°
2026-04-26 15:58 37.75620 20.88227 21 ft 67 kts 343°
2026-04-26 15:58 37.75865 20.88155 21 ft 15 kts 345°
2026-04-26 15:58 37.75862 20.88109 21 ft 6 kts 194°
2026-04-26 15:58 37.75802 20.88149 22 ft 18 kts 152°
2026-04-26 15:59 37.75640 20.88223 23 ft 28 kts 161°
2026-04-26 15:59 37.75502 20.88287 20 ft 14 kts 140°
2026-04-26 15:59 37.75464 20.88388 20 ft 12 kts 118°
2026-04-26 15:59 37.75396 20.88433 21 ft 11 kts 166°
2026-04-26 16:00 37.75358 20.88446 19 ft 0 kts 162°
2026-04-26 16:00 37.75353 20.88448 19 ft 3 kts 162°
2026-04-26 16:00 37.75319 20.88472 19 ft 7 kts 118°
2026-04-26 16:00 37.75325 20.88530 19 ft 6 kts 73°
2026-04-26 16:01 37.75330 20.88551 21 ft 0 kts 73°